Platteville, WI

4:06 AM CDT on June 28, 2017 (GMT -0500)
Platteville Municipal

Weather History for KPVB - March, 2014

Change the Weather History Date:

Tuesday, March 25, 2014

  Actual Average (KDBQ) Record (KDBQ)
Temperature  
Mean Temperature 20 °F -  
Max Temperature 25 °F 46 °F 80 °F (1907)
Min Temperature 16 °F 28 °F 4 °F (1960)
Degree Days  
Heating Degree Days 44    
Moisture  
Dew Point 8 °F    
Average Humidity 59    
Maximum Humidity 83    
Minimum Humidity 45    
Precipitation  
Precipitation 0.00 in - - ()
Sea Level Pressure  
Sea Level Pressure 30.15 in    
Wind  
Wind Speed 11 mph (WNW)    
Max Wind Speed 22 mph    
Max Gust Speed 28 mph    
Visibility 10 miles    
Events      
Averages and records for this station are not official NWS values.
T = Trace of Precipitation, MM = Missing Value Source: NWS Daily Summary

Daily Weather History Graph

Daily Weather History Graph

Search for Another Location

Airport or City:

Trip Planner

Search our weather history database for the weather conditions in past years. The results will help you decide how hot, cold, wet, or windy it might be!

Date:

Astronomy

Mar. 25, 2014 Rise Set
Actual Time 6:56 AM CDT 7:19 PM CDT
Civil Twilight 6:27 AM CDT 7:48 PM CDT
Nautical Twilight 5:54 AM CDT 8:21 PM CDT
Astronomical Twilight 5:20 AM CDT 8:55 PM CDT
Moon 3:24 AM CDT (3/25) 1:44 PM CDT (3/25)
Length of Visible Light 13h 20m
Length of Day
12h 23m
Waning Crescent, 32% of the Moon is Illuminated
Mar 25
Waning Crescent
Mar 30
New
Apr 7
First Quarter
Apr 15
Full
Apr 22
Last Quarter

Hourly Weather History & Observations

Time (CDT) Temp. Windchill Dew Point Humidity Pressure Visibility Wind Dir Wind Speed Gust Speed Precip Events Conditions
12:15 AM 25.2 °F 15.7 °F 18.3 °F 75% 30.07 in 10.0 mi West 9.2 mph - N/A   Scattered Clouds
12:35 AM 25.5 °F 13.8 °F 16.5 °F 69% 30.06 in 10.0 mi WNW 13.8 mph - N/A   Overcast
12:55 AM 24.6 °F 14.4 °F 15.3 °F 68% 30.06 in 10.0 mi WNW 10.4 mph - N/A   Mostly Cloudy
1:15 AM 23.9 °F 11.2 °F 11.8 °F 60% 30.06 in 10.0 mi WNW 15.0 mph 20.7 mph N/A   Scattered Clouds
1:35 AM 23.0 °F 11.7 °F 9.5 °F 56% 30.06 in 10.0 mi NW 11.5 mph - N/A   Clear
1:55 AM 22.6 °F 12.6 °F 9.7 °F 58% 30.07 in 10.0 mi WNW 9.2 mph - N/A   Clear
2:15 AM 21.7 °F 13.2 °F 10.0 °F 61% 30.07 in 10.0 mi WNW 6.9 mph - N/A   Clear
2:35 AM 20.7 °F 11.9 °F 9.5 °F 62% 30.07 in 10.0 mi WNW 6.9 mph - N/A   Clear
2:55 AM 20.3 °F 12.5 °F 9.3 °F 63% 30.06 in 10.0 mi WNW 5.8 mph - N/A   Clear
3:15 AM 19.9 °F 12.1 °F 9.1 °F 63% 30.06 in 10.0 mi WNW 5.8 mph - N/A   Clear
3:35 AM 19.2 °F 10.2 °F 9.5 °F 66% 30.05 in 10.0 mi West 6.9 mph - N/A   Clear
3:55 AM 17.6 °F 7.3 °F 9.5 °F 71% 30.05 in 10.0 mi West 8.1 mph - N/A   Clear
4:15 AM 18.1 °F 8.9 °F 10.0 °F 71% 30.05 in 10.0 mi West 6.9 mph - N/A   Clear
4:35 AM 17.1 °F 7.6 °F 9.5 °F 72% 30.05 in 10.0 mi West 6.9 mph - N/A   Clear
4:55 AM 18.3 °F 9.1 °F 10.8 °F 72% 30.05 in 10.0 mi West 6.9 mph - N/A   Clear
5:15 AM 18.9 °F 8.8 °F 11.3 °F 72% 30.05 in 10.0 mi West 8.1 mph - N/A   Clear
5:35 AM 19.2 °F 9.3 °F 12.0 °F 74% 30.06 in 10.0 mi WNW 8.1 mph - N/A   Scattered Clouds
5:55 AM 19.2 °F 10.2 °F 12.0 °F 74% 30.06 in 10.0 mi WNW 6.9 mph - N/A   Scattered Clouds
6:15 AM 18.5 °F 9.3 °F 11.8 °F 75% 30.07 in 10.0 mi West 6.9 mph - N/A   Clear
6:35 AM 18.7 °F 8.6 °F 12.2 °F 76% 30.07 in 10.0 mi WNW 8.1 mph - N/A   Scattered Clouds
6:55 AM 19.2 °F 10.2 °F 12.9 °F 76% 30.08 in 10.0 mi West 6.9 mph - N/A   Mostly Cloudy
7:15 AM 19.4 °F 9.5 °F 14.4 °F 81% 30.09 in 5.0 mi West 8.1 mph - N/A   Scattered Clouds
7:35 AM 20.1 °F 9.5 °F 15.6 °F 83% 30.10 in 10.0 mi WNW 9.2 mph - N/A   Scattered Clouds
7:55 AM 19.9 °F 4.8 °F 10.8 °F 68% 30.11 in 10.0 mi NW 18.4 mph 26.5 mph N/A   Scattered Clouds
8:15 AM 20.1 °F 5.0 °F 9.1 °F 62% 30.12 in 10.0 mi WNW 18.4 mph 23.0 mph N/A   Scattered Clouds
8:35 AM 19.4 °F 4.5 °F 6.1 °F 56% 30.12 in 10.0 mi NW 17.3 mph - N/A   Scattered Clouds
8:55 AM 19.4 °F 2.8 °F 5.5 °F 55% 30.13 in 10.0 mi NW 21.9 mph 27.6 mph N/A   Clear
9:15 AM 18.5 °F 2.0 °F 3.9 °F 53% 30.14 in 10.0 mi NNW 20.7 mph 26.5 mph N/A   Clear
9:35 AM 18.5 °F 1.6 °F 2.7 °F 50% 30.16 in 10.0 mi NW 21.9 mph 26.5 mph N/A   Clear
9:55 AM 18.5 °F 2.4 °F 3.2 °F 51% 30.17 in 10.0 mi NNW 19.6 mph - N/A   Clear
10:15 AM 18.5 °F 3.3 °F 3.0 °F 51% 30.17 in 10.0 mi NW 17.3 mph 25.3 mph N/A   Clear
10:35 AM 19.4 °F 2.8 °F 3.7 °F 51% 30.18 in 10.0 mi NW 21.9 mph 26.5 mph N/A   Clear
10:55 AM 19.0 °F 4.0 °F 2.8 °F 49% 30.19 in 10.0 mi NNW 17.3 mph 27.6 mph N/A   Clear
11:15 AM 19.4 °F 5.0 °F 3.0 °F 49% 30.18 in 10.0 mi NW 16.1 mph 25.3 mph N/A   Clear
11:35 AM 20.1 °F 7.5 °F 5.4 °F 53% 30.19 in 10.0 mi NW 12.7 mph 20.7 mph N/A   Scattered Clouds
11:55 AM 21.0 °F 7.6 °F 6.8 °F 54% 30.19 in 10.0 mi NW 15.0 mph 20.7 mph N/A   Scattered Clouds
12:15 PM 21.4 °F 6.6 °F 5.7 °F 51% 30.20 in 10.0 mi NW 18.4 mph 24.2 mph N/A   Clear
12:35 PM 21.0 °F 9.9 °F 5.4 °F 51% 30.20 in 10.0 mi NW 10.4 mph 21.9 mph N/A   Clear
12:55 PM 21.7 °F 9.6 °F 6.3 °F 51% 30.20 in 10.0 mi West 12.7 mph 23.0 mph N/A   Scattered Clouds
1:15 PM 22.6 °F 9.6 °F 5.4 °F 48% 30.20 in 10.0 mi WNW 15.0 mph 20.7 mph N/A   Scattered Clouds
1:35 PM 23.4 °F 9.6 °F 5.4 °F 46% 30.20 in 10.0 mi NW 17.3 mph 20.7 mph N/A   Scattered Clouds
1:55 PM 23.4 °F 11.6 °F 6.3 °F 48% 30.19 in 10.0 mi WNW 12.7 mph - N/A   Scattered Clouds
2:15 PM 23.7 °F 11.0 °F 6.3 °F 47% 30.19 in 10.0 mi WNW 15.0 mph 23.0 mph N/A   Scattered Clouds
2:35 PM 24.4 °F 11.5 °F 5.9 °F 45% 30.18 in 10.0 mi WNW 16.1 mph 21.9 mph N/A   Scattered Clouds
2:55 PM 24.6 °F 11.3 °F 6.8 °F 47% 30.19 in 10.0 mi West 17.3 mph 26.5 mph N/A   Scattered Clouds
3:15 PM 24.6 °F 10.5 °F 6.4 °F 46% 30.19 in 10.0 mi West 19.6 mph 25.3 mph N/A   Scattered Clouds
3:35 PM 24.6 °F 10.5 °F 6.6 °F 46% 30.18 in 10.0 mi West 19.6 mph 24.2 mph N/A   Scattered Clouds
3:55 PM 25.0 °F 12.2 °F 7.0 °F 46% 30.18 in 10.0 mi WNW 16.1 mph 23.0 mph N/A   Scattered Clouds
4:15 PM 24.6 °F 12.2 °F 7.5 °F 48% 30.19 in 10.0 mi WNW 15.0 mph 27.6 mph N/A   Scattered Clouds
4:35 PM 24.3 °F 11.2 °F 5.7 °F 45% 30.19 in 10.0 mi WNW 16.1 mph 23.0 mph N/A   Clear
4:55 PM 24.4 °F 12.4 °F 6.3 °F 46% 30.19 in 10.0 mi WNW 13.8 mph 19.6 mph N/A   Scattered Clouds
5:15 PM 24.1 °F 12.0 °F 6.4 °F 47% 30.19 in 10.0 mi WNW 13.8 mph 24.2 mph N/A   Scattered Clouds
5:35 PM 23.4 °F 10.6 °F 5.7 °F 47% 30.19 in 10.0 mi WNW 15.0 mph 19.6 mph N/A   Scattered Clouds
5:55 PM 23.7 °F 9.7 °F 6.3 °F 47% 30.20 in 10.0 mi West 18.4 mph 24.2 mph N/A   Scattered Clouds
6:15 PM 22.6 °F 10.7 °F 6.6 °F 50% 30.20 in 10.0 mi WNW 12.7 mph 19.6 mph N/A   Mostly Cloudy
6:35 PM 22.1 °F 10.0 °F 6.3 °F 51% 30.20 in 10.0 mi WNW 12.7 mph - N/A   Scattered Clouds
6:55 PM 21.6 °F 9.9 °F 7.3 °F 54% 30.20 in 10.0 mi WNW 11.5 mph 16.1 mph N/A   Clear
7:15 PM 21.0 °F 9.3 °F 6.1 °F 53% 30.20 in 10.0 mi WNW 11.5 mph - N/A   Clear
7:35 PM 20.7 °F 9.5 °F 6.4 °F 54% 30.21 in 10.0 mi WNW 10.4 mph - N/A   Clear
7:55 PM 20.3 °F 8.3 °F 7.3 °F 57% 30.21 in 10.0 mi WNW 11.5 mph 18.4 mph N/A   Clear
8:15 PM 19.9 °F 9.3 °F 7.0 °F 57% 30.21 in 10.0 mi WNW 9.2 mph - N/A   Clear
8:35 PM 19.4 °F 10.4 °F 7.5 °F 60% 30.21 in 10.0 mi WNW 6.9 mph - N/A   Clear
8:55 PM 19.4 °F 10.4 °F 7.3 °F 60% 30.22 in 10.0 mi WNW 6.9 mph - N/A   Clear
9:15 PM 18.7 °F 10.6 °F 8.1 °F 63% 30.22 in 10.0 mi WNW 5.8 mph - N/A   Clear
9:35 PM 18.0 °F 11.1 °F 7.7 °F 64% 30.22 in 10.0 mi WNW 4.6 mph - N/A   Clear
9:55 PM 17.2 °F 11.9 °F 8.2 °F 68% 30.22 in 10.0 mi West 3.5 mph - N/A   Clear
10:15 PM 17.6 °F - 7.9 °F 66% 30.22 in 10.0 mi Calm Calm - N/A   Scattered Clouds
10:35 PM 17.2 °F 10.2 °F 8.2 °F 68% 30.23 in 10.0 mi West 4.6 mph - N/A   Clear
10:55 PM 16.2 °F 7.6 °F 7.7 °F 69% 30.23 in 10.0 mi West 5.8 mph - N/A   Clear
11:15 PM 16.5 °F 11.0 °F 8.1 °F 69% 30.23 in 10.0 mi WSW 3.5 mph - N/A   Clear
11:35 PM 16.7 °F 9.6 °F 7.7 °F 68% 30.23 in 10.0 mi West 4.6 mph - N/A   Clear
11:55 PM 16.7 °F 11.2 °F 8.4 °F 70% 30.23 in 10.0 mi WSW 3.5 mph - N/A   Clear